Find Starlink 32491

NORAD ID: 62043 Int'l Des: 2024-216 Owner: SPXS Country: US Constellation: starlink operational
LEOCIRCULAR

現在のビュー

3D地球を読み込み中...

About Starlink 32491

Starlink 32491 (NORAD 62043) is a starlink constellation satellite (v2 mini) launched Nov 21, 2024 by SPXS of US. It operates in LEO, CIRCULAR orbit with a mass of 730.00 kg.

次回通過

Passes for default location (London). Set your location on the main map for personalized predictions.

高度履歴

Loading altitude history...

軌道要素

1 62043U 24216M 26264.28999065 .00026965 00000-0 98550-3 0 9996
2 62043 43.0009 239.1569 0002215 273.8544 86.2054 15.27589925103700
Epoch: Sep 21, 2026 • Age: 5 hours

現在のステータス

高度 482.5 km
遠地点 / 近地点 N/A
速度 7.63 km/s
衛星直下点 6.27°N, 135.43°W
打ち上げ日 Nov 21, 2024
運用期間 1.8 years
タイプ internet

技術仕様

分類 Payload
質量 730.00 kg
乾燥質量 700.00 kg
長さ 0.30 m
スパン 29.00 m
形状 ? Box + pan
製造者 SPXS
バスタイプ Starlink V2M
フェーズステータス In Orbit
所有者/国 SPXS/US

Most Searched